OV1-5 DEB

Satellite information

Favourite Embed

Satellite Type and Status

DEBRISIN ORBIT

Key statistics

Satellite OV1-5 DEB at a glance.

Uptime

21648

Days in orbit

Revolutions

≈ 14.7

Per day

Orbit

SSO

Sun Synchronous Orbit

Inclination

144.6

Latest

Satellite identification and parameters

Extended collection of information and parameters for OV1-5 DEB.

Object identification

Identified? True

Debris? True

Object name: OV1-5 DEB

International designator: 1966-025G

Object number (NORAD): 5599

Object ID (CCSDS): 5599

Country: UNITED STATES OF AMERICA (US)

Current information (Y/N): Y

RCS size: SMALL

Orbital parameters

Period: 97.658 minutes

Inclination: 144.6181 deg

SMA: 7024.753 km

Apoapsis: 665.891 km

Periapsis: 627.345 km

RAAN: 289.8478 deg

Eccentricy: 0.0027436

Argument of periapsis: 225.7105 deg

Mean anomaly: 134.1346 deg

Mean motion: 14.74538722 rev/day

Mean motion (dot): 0.0001672 rev/day2

B* drag term: 0.0023801 1/REarth

Two-line elements (TLE)

Creation date: July 5, 2025, 5:45 p.m.

Reference frame: TEME

Reference center: EARTH

Epoch: July 5, 2025, 2:02 a.m. UTC

TLE line 0: 0 OV1-5 DEB

TLE line 1: 1 05599U 66025G 25186.08520149 .00016720 00000-0 23801-2 0 9990

TLE line 2: 2 05599 144.6181 289.8478 0027436 225.7105 134.1346 14.74538722 52906

Live tracking on map

Real-time ground track for satellite OV1-5 DEB.

In-orbit conjunctions

A list of the most updated potential collisions computed for object OV1-5 DEB.

Target Orbit TCA Probability of collision Miss distance Type
CZ-6A DEB SSO 2024-11-10 21:26:02 0.0001155706 528.0 (m) DEBRIS

Associated space launch

The OV1 (Orbiting Vehicle 1) were small research satellite to be launched piggy back on Atlas ICBM test flights. They consisted in general of the OV1 satellite and the OV1-PM propulsion module (or upper stage) to reach orbit.

OV1-5 DEB was lifted into orbit during the mission ‘Atlas D | OV1-4 & 5’, on board a Atlas D space rocket.

The launch took place on March 30, 1966, 9:20 a.m. from 576B3.

For more information about the launch, click the button.

Launch to space Atlas D | OV1-4 & 5
Atlas D | OV1-4 & 5

Agency: N/A

Status: Launch Successful

Launch date: March 30, 1966, 9:20 a.m. UTC

Rocket: Atlas D

Launch pad: 576B3

Location: Vandenberg SFB, CA, USA

...

Latest news about this satellite

There are no fresh news available about this satellite. Check back as we update our databases every day.


Newsletter sign-up

Weekly statistics, charts and insights to help you stay on top of the space industry.